����������;��������(kVARh)
2016-08-15 00:00;0,45
2016-08-15 00:15;1,2
2016-08-15 00:30;4,2
2016-08-15 00:45;4,6
2016-08-15 01:00;6,65
2016-08-15 01:15;4,55
2016-08-15 01:30;2,4
2016-08-15 01:45;4,15
2016-08-15 02:00;5,2
2016-08-15 02:15;6,35
2016-08-15 02:30;7,8
2016-08-15 02:45;7,35
2016-08-15 03:00;8
2016-08-15 03:15;8,8
2016-08-15 03:30;7,25
2016-08-15 03:45;6,9
2016-08-15 04:00;8,85
2016-08-15 04:15;8,05
2016-08-15 04:30;9
2016-08-15 04:45;9,65
2016-08-15 05:00;10,3
2016-08-15 05:15;10,25
2016-08-15 05:30;10,25
2016-08-15 05:45;9,6
2016-08-15 06:00;9,5
2016-08-15 06:15;9,5
2016-08-15 06:30;8,4
2016-08-15 06:45;10,4
2016-08-15 07:00;12,7
2016-08-15 07:15;16,4
2016-08-15 07:30;14,1
2016-08-15 07:45;10,7
2016-08-15 08:00;9,65
2016-08-15 08:15;10
2016-08-15 08:30;8,05
2016-08-15 08:45;7,3
2016-08-15 09:00;5,7
2016-08-15 09:15;3,35
2016-08-15 09:30;4
2016-08-15 09:45;2,7
2016-08-15 10:00;3,65
2016-08-15 10:15;1,7
2016-08-15 10:30;1,65
2016-08-15 10:45;2,35
2016-08-15 11:00;2,95
2016-08-15 11:15;1,45
2016-08-15 11:30;1,6
2016-08-15 11:45;3,45
2016-08-15 12:00;1,4
2016-08-15 12:15;3,25
2016-08-15 12:30;2,45
2016-08-15 12:45;2,3
2016-08-15 13:00;1,8
2016-08-15 13:15;2,2
2016-08-15 13:30;1,45
2016-08-15 13:45;4
2016-08-15 14:00;3,4
2016-08-15 14:15;2,4
2016-08-15 14:30;5,9
2016-08-15 14:45;5,9
2016-08-15 15:00;7,6
2016-08-15 15:15;6,95
2016-08-15 15:30;3
2016-08-15 15:45;4,75
2016-08-15 16:00;4,8
2016-08-15 16:15;2,4
2016-08-15 16:30;6,1
2016-08-15 16:45;4,9
2016-08-15 17:00;3,15
2016-08-15 17:15;4,45
2016-08-15 17:30;2,8
2016-08-15 17:45;1,65
2016-08-15 18:00;1,1
2016-08-15 18:15;2,25
2016-08-15 18:30;1,15
2016-08-15 18:45;1,7
2016-08-15 19:00;0,45
2016-08-15 19:15;0
2016-08-15 19:30;0
2016-08-15 19:45;2,4
2016-08-15 20:00;4,2
2016-08-15 20:15;8,95
2016-08-15 20:30;10,1
2016-08-15 20:45;3,15
2016-08-15 21:00;0,35
2016-08-15 21:15;0,3
2016-08-15 21:30;0
2016-08-15 21:45;0,2
2016-08-15 22:00;1,2
2016-08-15 22:15;0,05
2016-08-15 22:30;1
2016-08-15 22:45;1,5
2016-08-15 23:00;2,1
2016-08-15 23:15;1,9
2016-08-15 23:30;2,7
2016-08-15 23:45;1,85
2016-08-16 00:00;1,2
2016-08-16 00:15;2,15
2016-08-16 00:30;0,6
2016-08-16 00:45;0,45
2016-08-16 01:00;0,75
2016-08-16 01:15;0,95
2016-08-16 01:30;1,7
2016-08-16 01:45;0,55
2016-08-16 02:00;0,3
2016-08-16 02:15;0
2016-08-16 02:30;0
2016-08-16 02:45;0,1
2016-08-16 03:00;0,8
2016-08-16 03:15;0,95
2016-08-16 03:30;0,75
2016-08-16 03:45;0,75
2016-08-16 04:00;0,25
2016-08-16 04:15;0,9
2016-08-16 04:30;0,15
2016-08-16 04:45;1,15
2016-08-16 05:00;0,85
2016-08-16 05:15;0,8
2016-08-16 05:30;0,55
2016-08-16 05:45;1,1
2016-08-16 06:00;0,5
2016-08-16 06:15;0,65
2016-08-16 06:30;0,05
2016-08-16 06:45;0,7
2016-08-16 07:00;0,35
2016-08-16 07:15;1,25
2016-08-16 07:30;0,85
2016-08-16 07:45;0,65
2016-08-16 08:00;2,1
2016-08-16 08:15;0,9
2016-08-16 08:30;0,4
2016-08-16 08:45;0
2016-08-16 09:00;0,7
2016-08-16 09:15;3,1
2016-08-16 09:30;0,65
2016-08-16 09:45;0,95
2016-08-16 10:00;0,7
2016-08-16 10:15;0
2016-08-16 10:30;2,9
2016-08-16 10:45;2,25
2016-08-16 11:00;3,75
2016-08-16 11:15;4,9
2016-08-16 11:30;6,15
2016-08-16 11:45;8,8
2016-08-16 12:00;7,3
2016-08-16 12:15;5,8
2016-08-16 12:30;7,35
2016-08-16 12:45;7,1
2016-08-16 13:00;5,75
2016-08-16 13:15;4,85
2016-08-16 13:30;5,8
2016-08-16 13:45;5,55
2016-08-16 14:00;6,45
2016-08-16 14:15;7,1
2016-08-16 14:30;6,65
2016-08-16 14:45;9,75
2016-08-16 15:00;11,8
2016-08-16 15:15;12,65
2016-08-16 15:30;9,15
2016-08-16 15:45;9,85
2016-08-16 16:00;7
2016-08-16 16:15;5,85
2016-08-16 16:30;5,85
2016-08-16 16:45;9,35
2016-08-16 17:00;10,3
2016-08-16 17:15;9,35
2016-08-16 17:30;9,1
2016-08-16 17:45;6,35
2016-08-16 18:00;6,65
2016-08-16 18:15;6,7
2016-08-16 18:30;5,9
2016-08-16 18:45;6,2
2016-08-16 19:00;5
2016-08-16 19:15;2,4
2016-08-16 19:30;2,55
2016-08-16 19:45;2,05
2016-08-16 20:00;1,5
2016-08-16 20:15;0,45
2016-08-16 20:30;0
2016-08-16 20:45;0
2016-08-16 21:00;0,1
2016-08-16 21:15;0,15
2016-08-16 21:30;0
2016-08-16 21:45;0,25
2016-08-16 22:00;0,6
2016-08-16 22:15;2,35
2016-08-16 22:30;5,8
2016-08-16 22:45;6,55
2016-08-16 23:00;6,1
2016-08-16 23:15;3,2
2016-08-16 23:30;0,65
2016-08-16 23:45;0
2016-08-17 00:00;0
2016-08-17 00:15;0,05
2016-08-17 00:30;0
2016-08-17 00:45;0
2016-08-17 01:00;0,2
2016-08-17 01:15;0,3
2016-08-17 01:30;0,05
2016-08-17 01:45;0,2
2016-08-17 02:00;0
2016-08-17 02:15;0,1
2016-08-17 02:30;0,25
2016-08-17 02:45;0,15
2016-08-17 03:00;0,4
2016-08-17 03:15;0,3
2016-08-17 03:30;0,85
2016-08-17 03:45;0,6
2016-08-17 04:00;1,65
2016-08-17 04:15;0,7
2016-08-17 04:30;0,3
2016-08-17 04:45;0,4
2016-08-17 05:00;1,05
2016-08-17 05:15;0,45
2016-08-17 05:30;0,75
2016-08-17 05:45;0
2016-08-17 06:00;0,3
2016-08-17 06:15;0
2016-08-17 06:30;0,05
2016-08-17 06:45;0,1
2016-08-17 07:00;0,65
2016-08-17 07:15;2,6
2016-08-17 07:30;0,9
2016-08-17 07:45;0,1
2016-08-17 08:00;1,8
2016-08-17 08:15;3,25
2016-08-17 08:30;2,65
2016-08-17 08:45;0,05
2016-08-17 09:00;0,3
2016-08-17 09:15;0
2016-08-17 09:30;0
2016-08-17 09:45;3,7
2016-08-17 10:00;1,75
2016-08-17 10:15;1,95
2016-08-17 10:30;5,45
2016-08-17 10:45;2,55
2016-08-17 11:00;6,55
2016-08-17 11:15;5,25
2016-08-17 11:30;4,4
2016-08-17 11:45;4,8
2016-08-17 12:00;3,55
2016-08-17 12:15;4,3
2016-08-17 12:30;5,9
2016-08-17 12:45;5,55
2016-08-17 13:00;0,25
2016-08-17 13:15;1
2016-08-17 13:30;1,2
2016-08-17 13:45;2,1
2016-08-17 14:00;2,7
2016-08-17 14:15;0,75
2016-08-17 14:30;0,55
2016-08-17 14:45;0
2016-08-17 15:00;0,15
2016-08-17 15:15;0,85
2016-08-17 15:30;2,7
2016-08-17 15:45;2,15
2016-08-17 16:00;3,95
2016-08-17 16:15;3,2
2016-08-17 16:30;7,25
2016-08-17 16:45;10,65
2016-08-17 17:00;7,4
2016-08-17 17:15;8,7
2016-08-17 17:30;5,5
2016-08-17 17:45;4,25
2016-08-17 18:00;5,45
2016-08-17 18:15;6,3
2016-08-17 18:30;5,3
2016-08-17 18:45;6,6
2016-08-17 19:00;8,6
2016-08-17 19:15;6,1
2016-08-17 19:30;7,1
2016-08-17 19:45;6,2
2016-08-17 20:00;3,8
2016-08-17 20:15;9,2
2016-08-17 20:30;7,75
2016-08-17 20:45;6,4
2016-08-17 21:00;4,65
2016-08-17 21:15;3,7
2016-08-17 21:30;5,8
2016-08-17 21:45;6,6
2016-08-17 22:00;9,85
2016-08-17 22:15;10,5
2016-08-17 22:30;13,05
2016-08-17 22:45;6,4
2016-08-17 23:00;6,1
2016-08-17 23:15;5,6
2016-08-17 23:30;7,1
2016-08-17 23:45;7,15
2016-08-18 00:00;9,65
2016-08-18 00:15;5,8
2016-08-18 00:30;7,2
2016-08-18 00:45;9,25
2016-08-18 01:00;13,75
2016-08-18 01:15;16,4
2016-08-18 01:30;15,7
2016-08-18 01:45;8,65
2016-08-18 02:00;3,65
2016-08-18 02:15;4,35
2016-08-18 02:30;5,3
2016-08-18 02:45;7,25
2016-08-18 03:00;6,5
2016-08-18 03:15;8,45
2016-08-18 03:30;8,85
2016-08-18 03:45;10,3
2016-08-18 04:00;9,45
2016-08-18 04:15;11,25
2016-08-18 04:30;7,7
2016-08-18 04:45;8,85
2016-08-18 05:00;9,45
2016-08-18 05:15;9,8
2016-08-18 05:30;8,9
2016-08-18 05:45;9,6
2016-08-18 06:00;8,8
2016-08-18 06:15;8,1
2016-08-18 06:30;7,9
2016-08-18 06:45;9,45
2016-08-18 07:00;9
2016-08-18 07:15;10,4
2016-08-18 07:30;8,45
2016-08-18 07:45;8,4
2016-08-18 08:00;8,2
2016-08-18 08:15;5,2
2016-08-18 08:30;4
2016-08-18 08:45;3,75
2016-08-18 09:00;3,55
2016-08-18 09:15;1,15
2016-08-18 09:30;0,25
2016-08-18 09:45;1
2016-08-18 10:00;1,2
2016-08-18 10:15;0,3
2016-08-18 10:30;0,75
2016-08-18 10:45;3,05
2016-08-18 11:00;6,95
2016-08-18 11:15;2,85
2016-08-18 11:30;1,2
2016-08-18 11:45;3,5
2016-08-18 12:00;1,85
2016-08-18 12:15;1,1
2016-08-18 12:30;2,05
2016-08-18 12:45;0,35
2016-08-18 13:00;0,1
2016-08-18 13:15;0,25
2016-08-18 13:30;0,15
2016-08-18 13:45;1,1
2016-08-18 14:00;1,1
2016-08-18 14:15;0,9
2016-08-18 14:30;4,2
2016-08-18 14:45;4,95
2016-08-18 15:00;6,65
2016-08-18 15:15;7,1
2016-08-18 15:30;6,15
2016-08-18 15:45;7,9
2016-08-18 16:00;8,35
2016-08-18 16:15;7,95
2016-08-18 16:30;9,8
2016-08-18 16:45;9,4
2016-08-18 17:00;10,7
2016-08-18 17:15;10,45
2016-08-18 17:30;8
2016-08-18 17:45;5,45
2016-08-18 18:00;4,85
2016-08-18 18:15;2,45
2016-08-18 18:30;4
2016-08-18 18:45;2,2
2016-08-18 19:00;0,4
2016-08-18 19:15;0,6
2016-08-18 19:30;1,45
2016-08-18 19:45;0,55
2016-08-18 20:00;0,5
2016-08-18 20:15;4,5
2016-08-18 20:30;2,95
2016-08-18 20:45;2,45
2016-08-18 21:00;2,3
2016-08-18 21:15;3,8
2016-08-18 21:30;7,45
2016-08-18 21:45;3,95
2016-08-18 22:00;4,05
2016-08-18 22:15;4,35
2016-08-18 22:30;0,2
2016-08-18 22:45;0,7
2016-08-18 23:00;1,2
2016-08-18 23:15;1,8
2016-08-18 23:30;0,25
2016-08-18 23:45;0
2016-08-19 00:00;0,05
2016-08-19 00:15;0
2016-08-19 00:30;0
2016-08-19 00:45;0,05
2016-08-19 01:00;0,05
2016-08-19 01:15;0,25
2016-08-19 01:30;0,7
2016-08-19 01:45;0,5
2016-08-19 02:00;0,9
2016-08-19 02:15;0,4
2016-08-19 02:30;1,85
2016-08-19 02:45;0,5
2016-08-19 03:00;0
2016-08-19 03:15;0
2016-08-19 03:30;0,2
2016-08-19 03:45;0,65
2016-08-19 04:00;0,95
2016-08-19 04:15;0
2016-08-19 04:30;0
2016-08-19 04:45;0,35
2016-08-19 05:00;1,9
2016-08-19 05:15;2,5
2016-08-19 05:30;2,7
2016-08-19 05:45;2,45
2016-08-19 06:00;0,2
2016-08-19 06:15;0,6
2016-08-19 06:30;0,1
2016-08-19 06:45;0,2
2016-08-19 07:00;0,3
2016-08-19 07:15;1,7
2016-08-19 07:30;0,1
2016-08-19 07:45;0,5
2016-08-19 08:00;1,85
2016-08-19 08:15;2,05
2016-08-19 08:30;0,45
2016-08-19 08:45;1,35
2016-08-19 09:00;0,3
2016-08-19 09:15;0
2016-08-19 09:30;0,05
2016-08-19 09:45;0
2016-08-19 10:00;0
2016-08-19 10:15;0,25
2016-08-19 10:30;0
2016-08-19 10:45;0
2016-08-19 11:00;0,15
2016-08-19 11:15;0
2016-08-19 11:30;0
2016-08-19 11:45;1,1
2016-08-19 12:00;2,65
2016-08-19 12:15;1,5
2016-08-19 12:30;1,9
2016-08-19 12:45;2,35
2016-08-19 13:00;1,35
2016-08-19 13:15;6,2
2016-08-19 13:30;8,05
2016-08-19 13:45;5,2
2016-08-19 14:00;3,15
2016-08-19 14:15;4,2
2016-08-19 14:30;1,25
2016-08-19 14:45;2
2016-08-19 15:00;3
2016-08-19 15:15;2,05
2016-08-19 15:30;3,2
2016-08-19 15:45;2,5
2016-08-19 16:00;4,3
2016-08-19 16:15;2,85
2016-08-19 16:30;1,15
2016-08-19 16:45;2,8
2016-08-19 17:00;2,05
2016-08-19 17:15;1,1
2016-08-19 17:30;1,15
2016-08-19 17:45;0,25
2016-08-19 18:00;1,35
2016-08-19 18:15;1,2
2016-08-19 18:30;0
2016-08-19 18:45;0
2016-08-19 19:00;0
2016-08-19 19:15;0
2016-08-19 19:30;0
2016-08-19 19:45;0
2016-08-19 20:00;0
2016-08-19 20:15;0
2016-08-19 20:30;0
2016-08-19 20:45;0
2016-08-19 21:00;0
2016-08-19 21:15;0
2016-08-19 21:30;0
2016-08-19 21:45;0,6
2016-08-19 22:00;0,15
2016-08-19 22:15;2,1
2016-08-19 22:30;2,3
2016-08-19 22:45;5,05
2016-08-19 23:00;6,85
2016-08-19 23:15;2,65
2016-08-19 23:30;2,2
2016-08-19 23:45;1,55
2016-08-20 00:00;1,55
2016-08-20 00:15;2,65
2016-08-20 00:30;2,65
2016-08-20 00:45;1,6
2016-08-20 01:00;0
2016-08-20 01:15;0,35
2016-08-20 01:30;0,15
2016-08-20 01:45;0
2016-08-20 02:00;0,15
2016-08-20 02:15;0
2016-08-20 02:30;0
2016-08-20 02:45;0
2016-08-20 03:00;0
2016-08-20 03:15;0
2016-08-20 03:30;0
2016-08-20 03:45;0,05
2016-08-20 04:00;0
2016-08-20 04:15;0
2016-08-20 04:30;0
2016-08-20 04:45;0
2016-08-20 05:00;0
2016-08-20 05:15;0
2016-08-20 05:30;0
2016-08-20 05:45;0
2016-08-20 06:00;0,15
2016-08-20 06:15;0
2016-08-20 06:30;0
2016-08-20 06:45;0
2016-08-20 07:00;0,25
2016-08-20 07:15;0
2016-08-20 07:30;0
2016-08-20 07:45;0
2016-08-20 08:00;0,05
2016-08-20 08:15;2,65
2016-08-20 08:30;2,55
2016-08-20 08:45;1
2016-08-20 09:00;0
2016-08-20 09:15;0
2016-08-20 09:30;0
2016-08-20 09:45;0
2016-08-20 10:00;0
2016-08-20 10:15;0
2016-08-20 10:30;0,05
2016-08-20 10:45;0
2016-08-20 11:00;0,2
2016-08-20 11:15;0,05
2016-08-20 11:30;0,2
2016-08-20 11:45;0
2016-08-20 12:00;0,8
2016-08-20 12:15;1,15
2016-08-20 12:30;0,35
2016-08-20 12:45;0,7
2016-08-20 13:00;0
2016-08-20 13:15;0
2016-08-20 13:30;0,25
2016-08-20 13:45;0
2016-08-20 14:00;0
2016-08-20 14:15;0
2016-08-20 14:30;0
2016-08-20 14:45;0
2016-08-20 15:00;0
2016-08-20 15:15;0
2016-08-20 15:30;0
2016-08-20 15:45;0,1
2016-08-20 16:00;0
2016-08-20 16:15;0
2016-08-20 16:30;0,1
2016-08-20 16:45;0
2016-08-20 17:00;0,05
2016-08-20 17:15;0,25
2016-08-20 17:30;0,1
2016-08-20 17:45;0
2016-08-20 18:00;0
2016-08-20 18:15;0
2016-08-20 18:30;0
2016-08-20 18:45;0
2016-08-20 19:00;1,5
2016-08-20 19:15;1,55
2016-08-20 19:30;2
2016-08-20 19:45;0,7
2016-08-20 20:00;0,2
2016-08-20 20:15;0,1
2016-08-20 20:30;0
2016-08-20 20:45;0
2016-08-20 21:00;0
2016-08-20 21:15;0
2016-08-20 21:30;0,05
2016-08-20 21:45;1,85
2016-08-20 22:00;3,85
2016-08-20 22:15;4,35
2016-08-20 22:30;3,05
2016-08-20 22:45;3,1
2016-08-20 23:00;3,15
2016-08-20 23:15;0,7
2016-08-20 23:30;1,05
2016-08-20 23:45;0,7
2016-08-21 00:00;0,4
2016-08-21 00:15;1,65
2016-08-21 00:30;2,65
2016-08-21 00:45;4,15
2016-08-21 01:00;3,45
2016-08-21 01:15;5,7
2016-08-21 01:30;5,3
2016-08-21 01:45;2,7
2016-08-21 02:00;1,45
2016-08-21 02:15;2,5
2016-08-21 02:30;2,25
2016-08-21 02:45;3,3
2016-08-21 03:00;2,7
2016-08-21 03:15;3,7
2016-08-21 03:30;3,15
2016-08-21 03:45;5,9
2016-08-21 04:00;4,05
2016-08-21 04:15;6,65
2016-08-21 04:30;5,45
2016-08-21 04:45;5,95
2016-08-21 05:00;5,35
2016-08-21 05:15;5,95
2016-08-21 05:30;5,35
2016-08-21 05:45;6,6
2016-08-21 06:00;4,9
2016-08-21 06:15;5,6
2016-08-21 06:30;6,35
2016-08-21 06:45;8,4
2016-08-21 07:00;8,5
2016-08-21 07:15;8,15
2016-08-21 07:30;6,5
2016-08-21 07:45;5,95
2016-08-21 08:00;4,3
2016-08-21 08:15;5,85
2016-08-21 08:30;4,2
2016-08-21 08:45;2,75
2016-08-21 09:00;2,6
2016-08-21 09:15;2,05
2016-08-21 09:30;5,3
2016-08-21 09:45;5,45
2016-08-21 10:00;5,05
2016-08-21 10:15;5,7
2016-08-21 10:30;8
2016-08-21 10:45;7,7
2016-08-21 11:00;8,1
2016-08-21 11:15;4,1
2016-08-21 11:30;3,65
2016-08-21 11:45;4,55
2016-08-21 12:00;3,6
2016-08-21 12:15;2,7
2016-08-21 12:30;3,7
2016-08-21 12:45;3,4
2016-08-21 13:00;2,45
2016-08-21 13:15;2,45
2016-08-21 13:30;1,95
2016-08-21 13:45;1,75
2016-08-21 14:00;2,5
2016-08-21 14:15;2,05
2016-08-21 14:30;3,45
2016-08-21 14:45;3,2
2016-08-21 15:00;3,1
2016-08-21 15:15;3,9
2016-08-21 15:30;4,8
2016-08-21 15:45;3,45
2016-08-21 16:00;4,15
2016-08-21 16:15;4,05
2016-08-21 16:30;2,55
2016-08-21 16:45;4,3
2016-08-21 17:00;4,1
2016-08-21 17:15;3,7
2016-08-21 17:30;4,3
2016-08-21 17:45;3,1
2016-08-21 18:00;1,15
2016-08-21 18:15;1,45
2016-08-21 18:30;2,55
2016-08-21 18:45;1,7
2016-08-21 19:00;2,75
2016-08-21 19:15;3,1
2016-08-21 19:30;1,2
2016-08-21 19:45;1,6
2016-08-21 20:00;1,15
2016-08-21 20:15;1,15
2016-08-21 20:30;0,7
2016-08-21 20:45;0,2
2016-08-21 21:00;0
2016-08-21 21:15;0
2016-08-21 21:30;0
2016-08-21 21:45;0
2016-08-21 22:00;1,45
2016-08-21 22:15;4,15
2016-08-21 22:30;5,9
2016-08-21 22:45;2,35
2016-08-21 23:00;0,15
2016-08-21 23:15;0,2
2016-08-21 23:30;0
2016-08-21 23:45;0,3

